Weather History for KSAW - December, 2012

Change the Weather History Date:

Saturday, December 1, 2012

  Actual Average (KESC) Record (KESC)
Temperature  
Mean Temperature 32 °F -  
Max Temperature 37 °F 33 °F 53 °F (1970)
Min Temperature 26 °F 21 °F -4 °F (2014)
Degree Days  
Heating Degree Days 34    
Moisture  
Dew Point 31 °F    
Average Humidity 94    
Maximum Humidity 100    
Minimum Humidity 92    
Precipitation  
Precipitation 0.00 in - - ()
Sea Level Pressure  
Sea Level Pressure 30.01 in    
Wind  
Wind Speed 8 mph (South)    
Max Wind Speed 17 mph    
Max Gust Speed 22 mph    
Visibility 1 miles    
Events Fog , Snow    
Averages and records for this station are not official NWS values.
T = Trace of Precipitation, MM = Missing Value Source: NWS Daily Summary

Daily Weather History Graph

Daily Weather History Graph

Search for Another Location

Airport or City:

Trip Planner

Search our weather history database for the weather conditions in past years. The results will help you decide how hot, cold, wet, or windy it might be!

Date:

Astronomy

Dec. 01, 2012 Rise Set
Actual Time 8:12 AM EST 5:04 PM EST
Civil Twilight 7:38 AM EST 5:38 PM EST
Nautical Twilight 7:00 AM EST 6:16 PM EST
Astronomical Twilight 6:24 AM EST 6:52 PM EST
Moon 7:57 PM EST (12/1) 10:23 AM EST (12/1)
Length of Visible Light 10h 00m
Length of Day
8h 51m
Waning Gibbous, 92% of the Moon is Illuminated
Dec 1
Waning Gibbous
Dec 6
Last Quarter
Dec 13
New
Dec 20
First Quarter
Dec 28
Full

Hourly Weather History & Observations

Time (EST) Temp. Windchill Dew Point Humidity Pressure Visibility Wind Dir Wind Speed Gust Speed Precip Events Conditions
12:16 AM 26.1 °F 21.9 °F 24.1 °F 92% 30.20 in 5.0 mi SSE 3.5 mph - N/A   Overcast
12:36 AM 26.6 °F 19.1 °F 24.8 °F 93% 30.19 in 3.0 mi SSE 6.9 mph - N/A   Overcast
12:55 AM 27.1 °F 19.7 °F 25.3 °F 93% 30.19 in 2.5 mi SSE 6.9 mph - N/A   Overcast
1:16 AM 28.0 °F 20.8 °F 26.2 °F 93% 30.19 in 2.0 mi SSE 6.9 mph - N/A   Overcast
1:36 AM 28.8 °F 21.7 °F 27.0 °F 93% 30.18 in 1.8 mi SSE 6.9 mph - N/A   Overcast
1:55 AM 29.3 °F 21.5 °F 27.5 °F 93% 30.17 in 1.5 mi SE 8.1 mph - N/A   Overcast
2:16 AM 29.8 °F 23.0 °F 28.2 °F 94% 30.17 in 1.5 mi SSE 6.9 mph - N/A   Overcast
2:36 AM 30.0 °F 21.1 °F 28.4 °F 94% 30.17 in 1.2 mi SE 10.4 mph - N/A   Overcast
2:56 AM 30.2 °F 22.6 °F 28.4 °F 93% 30.17 in 1.2 mi SE 8.1 mph - N/A   Overcast
3:16 AM 30.2 °F 21.9 °F 28.4 °F 93% 30.17 in 1.2 mi SSE 9.2 mph - N/A   Overcast
3:36 AM 30.2 °F 21.9 °F 28.4 °F 93% 30.15 in 1.0 mi SE 9.2 mph - N/A   Overcast
3:56 AM 30.2 °F 22.6 °F 28.4 °F 93% 30.15 in 0.8 mi SSE 8.1 mph - N/A   Overcast
4:16 AM 30.2 °F 23.4 °F 28.8 °F 94% 30.15 in 0.8 mi SSE 6.9 mph - N/A   Overcast
4:35 AM 30.2 °F 22.6 °F 28.4 °F 93% 30.15 in 0.8 mi South 8.1 mph - N/A   Overcast
4:56 AM 30.9 °F 22.8 °F 29.3 °F 94% 30.12 in 0.8 mi SSE 9.2 mph - N/A   Overcast
5:16 AM 31.1 °F 23.1 °F 29.7 °F 94% 30.13 in 1.2 mi South 9.2 mph - N/A   Overcast
5:35 AM 31.5 °F 23.5 °F 29.8 °F 94% 30.12 in 1.8 mi SSE 9.2 mph - N/A   Overcast
5:56 AM 31.6 °F 23.1 °F 30.0 °F 94% 30.11 in 1.8 mi South 10.4 mph - N/A   Overcast
6:50 AM 32.0 °F 23.6 °F 30.2 °F 93% 30.11 in 1.8 mi SSE 10.4 mph - N/A   Overcast
7:55 AM 32.0 °F 22.1 °F 30.2 °F 93% 30.06 in 2.0 mi South 13.8 mph 20.7 mph N/A   Overcast
8:55 AM 32.0 °F 21.6 °F 32.0 °F 100% 30.06 in 1.0 mi South 15.0 mph 20.7 mph N/A   Overcast
9:10 AM 33.8 °F 24.3 °F 32.0 °F 93% 30.06 in 0.8 mi South 13.8 mph - N/A   Overcast
9:50 AM 33.8 °F 25.3 °F 32.0 °F 93% 30.04 in 0.8 mi South 11.5 mph 17.3 mph N/A   Overcast
10:50 AM 33.8 °F 24.8 °F 32.0 °F 93% 30.02 in 0.8 mi South 12.7 mph - N/A   Overcast
11:50 AM 33.8 °F 23.9 °F 32.0 °F 93% 30.00 in 1.0 mi South 15.0 mph - N/A   Overcast
12:50 PM 33.8 °F 23.9 °F 32.0 °F 93% 29.95 in 0.5 mi South 15.0 mph - N/A Fog Fog
1:50 PM 35.6 °F 26.2 °F 33.8 °F 93% 29.92 in 0.5 mi SSW 15.0 mph - N/A Fog Fog
2:50 PM 35.6 °F 25.9 °F 33.8 °F 93% 29.89 in 0.5 mi South 16.1 mph 20.7 mph N/A Fog Fog
3:50 PM 35.6 °F 25.5 °F 33.8 °F 93% 29.86 in 0.2 mi South 17.3 mph 20.7 mph N/A Fog Fog
4:50 PM 35.6 °F 26.6 °F 33.8 °F 93% 29.83 in 0.2 mi South 13.8 mph 21.9 mph N/A Snow Light Snow
5:50 PM 35.6 °F - 33.8 °F 93% 29.82 in 0.2 mi South 2.3 mph - N/A Snow Light Snow
7:50 PM 35.6 °F 26.2 °F 35.6 °F 100% 29.78 in 0.5 mi South 15.0 mph - N/A Fog Fog
8:50 PM 37.4 °F 29.8 °F 35.6 °F 93% 29.77 in 0.5 mi SSW 11.5 mph - N/A Snow Light Snow
9:55 PM 37.4 °F 32.1 °F 35.6 °F 93% 29.77 in 0.2 mi SSW 6.9 mph - N/A Fog Fog
10:16 PM 37.4 °F 33.8 °F 35.8 °F 94% 29.77 in 0.2 mi SW 4.6 mph - N/A Fog Fog
10:36 PM 37.4 °F 34.9 °F 35.6 °F 93% 29.76 in 0.2 mi SW 3.5 mph - N/A Fog Fog
10:55 PM 37.0 °F - 35.4 °F 94% 29.76 in 0.2 mi Calm Calm - N/A Fog Fog
11:16 PM 37.2 °F 34.7 °F 35.6 °F 94% 29.76 in 0.2 mi WSW 3.5 mph - N/A Fog Fog
11:36 PM 37.2 °F - 35.6 °F 94% 29.75 in 0.2 mi Calm Calm - N/A Fog Fog
11:55 PM 37.4 °F 34.9 °F 35.6 °F 93% 29.74 in 0.2 mi South 3.5 mph - N/A Fog Fog